Total_Precipitation_Accumulation
0.00 0.00 0.00 0.00 0.00 0.00 0.00 0.00 0.00 0.00 0.00 0.00 0.00 0.00 0.00 0.00 0.00 0.00 0.00 0.01 0.01 0.04 0.08 0.18 0.39 0.71 0.89 1.06 0.97 0.87 0.84 0.78 0.74 0.77 0.84 0.97 1.11 1.15 1.07 1.03 1.02 1.05 1.13 1.23
0.00 0.00 0.00 0.00 0.00 0.00 0.00 0.00 0.00 0.00 0.00 0.00 0.00 0.01 0.01 0.01 0.01 0.01 0.01 0.01 0.02 0.04 0.10 0.20 0.37 0.51 0.59 0.74 0.91 0.92 0.87 0.91 1.02 1.25 1.49 1.79 2.01 1.98 1.85 1.73 1.68 1.69 1.68 1.63
0.00 0.00 0.00 0.00 0.00 0.00 0.00 0.00 0.00 0.00 0.00 0.00 0.00 0.01 0.01 0.02 0.01 0.01 0.01 0.02 0.03 0.06 0.11 0.18 0.28 0.45 0.58 0.75 0.95 1.02 1.08 1.31 1.57 1.87 2.30 2.68 2.74 2.67 2.62 2.43 2.33 2.17 1.99 1.86
0.00 0.00 0.00 0.00 0.00 0.00 0.00 0.00 0.00 0.00 0.00 0.00 0.00 0.01 0.02 0.02 0.02 0.02 0.03 0.03 0.04 0.06 0.09 0.16 0.28 0.49 0.72 0.93 1.10 1.23 1.41 1.77 2.18 2.49 2.83 3.06 3.13 3.07 3.00 2.73 2.50 2.20 1.93 1.79
0.00 0.00 0.00 0.00 0.00 0.00 0.00 0.00 0.00 0.00 0.00 0.00 0.00 0.01 0.03 0.03 0.03 0.04 0.05 0.05 0.06 0.07 0.09 0.14 0.24 0.43 0.66 0.92 1.21 1.43 1.59 1.99 2.41 2.70 2.89 3.08 3.22 3.18 2.97 2.57 2.17 1.88 1.68 1.52
0.00 0.00 0.00 0.00 0.00 0.00 0.00 0.00 0.00 0.00 0.00 0.00 0.00 0.01 0.04 0.06 0.05 0.05 0.06 0.07 0.09 0.10 0.12 0.17 0.25 0.36 0.53 0.75 1.04 1.25 1.44 1.94 2.41 2.69 2.84 3.00 3.04 2.84 2.44 2.02 1.70 1.51 1.38 1.26
0.00 0.00 0.00 0.00 0.00 0.00 0.00 0.00 0.00 0.00 0.00 0.00 0.00 0.02 0.09 0.10 0.08 0.06 0.07 0.10 0.12 0.12 0.14 0.19 0.27 0.36 0.50 0.65 0.88 1.13 1.37 1.68 2.05 2.27 2.35 2.37 2.31 2.16 1.99 1.77 1.53 1.31 1.15 1.01
0.01 0.00 0.00 0.00 0.00 0.00 0.00 0.00 0.00 0.00 0.00 0.00 0.02 0.08 0.19 0.14 0.11 0.10 0.11 0.12 0.13 0.15 0.17 0.23 0.34 0.44 0.51 0.63 0.84 1.09 1.28 1.48 1.62 1.68 1.69 1.58 1.49 1.42 1.35 1.21 1.03 0.87 0.70 0.58
0.03 0.01 0.01 0.00 0.00 0.00 0.00 0.00 0.00 0.00 0.00 0.01 0.05 0.15 0.28 0.25 0.19 0.17 0.17 0.16 0.17 0.20 0.23 0.32 0.41 0.47 0.54 0.60 0.72 0.85 0.97 1.08 1.06 0.97 0.93 0.89 0.87 0.81 0.72 0.62 0.50 0.42 0.36 0.28
0.04 0.03 0.01 0.00 0.00 0.01 0.00 0.00 0.00 0.00 0.00 0.01 0.05 0.15 0.27 0.32 0.31 0.27 0.23 0.23 0.24 0.26 0.31 0.38 0.45 0.48 0.51 0.53 0.58 0.60 0.60 0.60 0.59 0.57 0.55 0.54 0.52 0.47 0.43 0.39 0.34 0.30 0.25 0.20
0.04 0.05 0.04 0.02 0.02 0.02 0.01 0.01 0.00 0.00 0.00 0.00 0.04 0.19 0.29 0.39 0.40 0.35 0.34 0.32 0.30 0.32 0.39 0.47 0.49 0.45 0.43 0.41 0.42 0.44 0.45 0.42 0.40 0.40 0.40 0.37 0.34 0.30 0.27 0.25 0.23 0.20 0.16 0.13
0.04 0.04 0.08 0.05 0.03 0.02 0.01 0.01 0.01 0.01 0.00 0.00 0.05 0.26 0.36 0.58 0.65 0.57 0.51 0.42 0.41 0.42 0.47 0.50 0.47 0.41 0.36 0.37 0.38 0.36 0.38 0.39 0.37 0.34 0.31 0.28 0.25 0.22 0.20 0.18 0.16 0.15 0.14 0.14
0.05 0.05 0.09 0.10 0.08 0.05 0.03 0.02 0.02 0.01 0.01 0.02 0.08 0.33 0.44 0.59 0.69 0.58 0.50 0.49 0.57 0.62 0.63 0.59 0.53 0.43 0.36 0.34 0.32 0.31 0.30 0.28 0.23 0.19 0.17 0.18 0.18 0.17 0.17 0.16 0.15 0.15 0.14 0.14
0.04 0.07 0.14 0.25 0.22 0.12 0.08 0.05 0.04 0.04 0.06 0.08 0.17 0.35 0.48 0.59 0.62 0.59 0.59 0.65 0.78 0.80 0.67 0.57 0.50 0.40 0.34 0.30 0.28 0.26 0.24 0.21 0.17 0.13 0.11 0.11 0.13 0.14 0.15 0.14 0.14 0.13 0.13 0.13
0.03 0.08 0.12 0.16 0.12 0.13 0.13 0.11 0.11 0.12 0.14 0.21 0.31 0.45 0.62 0.79 0.86 0.84 0.78 0.76 0.80 0.78 0.71 0.64 0.53 0.46 0.38 0.33 0.28 0.25 0.23 0.18 0.14 0.12 0.12 0.13 0.13 0.13 0.13 0.13 0.13 0.13 0.12 0.10
0.03 0.07 0.11 0.15 0.13 0.12 0.15 0.17 0.17 0.18 0.27 0.37 0.46 0.66 0.90 1.03 1.06 1.00 0.92 0.87 0.88 0.80 0.75 0.68 0.59 0.51 0.45 0.42 0.40 0.35 0.30 0.24 0.21 0.20 0.19 0.17 0.15 0.14 0.14 0.14 0.13 0.12 0.10 0.09
0.03 0.06 0.10 0.15 0.12 0.13 0.27 0.32 0.32 0.33 0.36 0.45 0.52 0.67 0.87 0.99 1.05 1.07 1.02 0.94 0.91 0.86 0.84 0.78 0.69 0.61 0.56 0.52 0.47 0.42 0.37 0.32 0.28 0.24 0.21 0.17 0.14 0.13 0.13 0.11 0.10 0.09 0.07 0.06
0.05 0.08 0.11 0.11 0.17 0.31 0.41 0.31 0.32 0.37 0.32 0.34 0.43 0.51 0.64 0.78 0.84 0.87 0.91 0.92 0.95 0.94 0.90 0.81 0.74 0.70 0.66 0.60 0.53 0.47 0.38 0.30 0.24 0.20 0.17 0.14 0.11 0.10 0.09 0.08 0.07 0.05 0.04 0.04
0.03 0.11 0.19 0.18 0.22 0.33 0.41 0.24 0.23 0.37 0.42 0.35 0.33 0.38 0.44 0.47 0.56 0.69 0.73 0.74 0.82 0.85 0.83 0.76 0.69 0.66 0.64 0.57 0.46 0.34 0.26 0.20 0.17 0.14 0.12 0.11 0.09 0.07 0.05 0.04 0.04 0.05 0.05 0.04
0.03 0.09 0.25 0.31 0.38 0.44 0.43 0.18 0.17 0.34 0.54 0.44 0.43 0.42 0.48 0.52 0.60 0.60 0.58 0.62 0.67 0.68 0.67 0.66 0.64 0.58 0.50 0.40 0.28 0.21 0.17 0.14 0.12 0.10 0.08 0.06 0.04 0.04 0.04 0.04 0.05 0.05 0.05 0.04
0.20 0.21 0.29 0.40 0.53 0.54 0.28 0.15 0.23 0.46 0.54 0.47 0.52 0.54 0.54 0.58 0.59 0.48 0.43 0.49 0.55 0.57 0.58 0.55 0.51 0.45 0.35 0.24 0.17 0.15 0.13 0.11 0.07 0.04 0.03 0.02 0.02 0.02 0.02 0.04 0.05 0.05 0.05 0.05
0.39 0.41 0.44 0.51 0.59 0.59 0.24 0.18 0.34 0.42 0.32 0.39 0.45 0.43 0.45 0.44 0.45 0.43 0.42 0.45 0.47 0.50 0.51 0.48 0.41 0.32 0.21 0.13 0.10 0.10 0.08 0.05 0.03 0.02 0.02 0.02 0.02 0.01 0.01 0.04 0.06 0.06 0.05 0.05
0.43 0.48 0.52 0.57 0.63 0.46 0.24 0.18 0.18 0.22 0.26 0.30 0.34 0.34 0.38 0.39 0.39 0.39 0.41 0.44 0.46 0.44 0.39 0.32 0.24 0.17 0.12 0.08 0.07 0.07 0.05 0.03 0.02 0.02 0.03 0.03 0.02 0.02 0.02 0.03 0.05 0.05 0.05 0.05
0.49 0.41 0.46 0.51 0.52 0.38 0.25 0.17 0.14 0.15 0.19 0.24 0.29 0.33 0.37 0.38 0.36 0.35 0.36 0.37 0.35 0.30 0.23 0.17 0.11 0.08 0.07 0.05 0.05 0.05 0.03 0.02 0.03 0.05 0.04 0.04 0.05 0.05 0.04 0.05 0.04 0.04 0.05 0.05
0.36 0.47 0.63 0.67 0.63 0.47 0.35 0.24 0.19 0.21 0.25 0.29 0.34 0.37 0.36 0.34 0.34 0.32 0.30 0.26 0.21 0.16 0.11 0.08 0.07 0.06 0.04 0.03 0.03 0.02 0.02 0.02 0.04 0.05 0.04 0.05 0.04 0.04 0.06 0.06 0.03 0.02 0.03 0.01
0.16 0.37 0.69 0.83 0.70 0.61 0.57 0.47 0.42 0.46 0.52 0.45 0.37 0.34 0.36 0.32 0.28 0.22 0.18 0.14 0.10 0.07 0.06 0.05 0.04 0.03 0.02 0.02 0.01 0.01 0.01 0.01 0.03 0.04 0.04 0.04 0.03 0.03 0.03 0.05 0.05 0.02 0.01 0.01